Location: Unspecified
(0.0000°N, 0.0000°E)
Time: 19:16:56
(UTC+01:00)

ARIANE 5 R/B - Visible Passes

Search period start: 07 December 2016 00:00
Search period end: 17 December 2016 00:00
Orbit: 544 x 35583 km, 5.2° (Epoch: 05 December)

Date Brightness Start Highest point End Pass type
(mag) Time Alt. Az. Time Alt. Az. Time Alt. Az.
07 Dec 6.7 10:32:44 10° W 20:07:00 81° N 20:29:20 26° E visible
09 Dec 3.6 04:35:06 55° SE 04:35:06 55° SE 04:41:55 10° E visible
09 Dec 10.7 16:22:24 10° W 17:32:15 19° W 19:35:03 10° W visible
10 Dec 5.9 12:40:49 10° W 14:29:04 68° W 22:26:38 76° NNW visible
11 Dec 6.9 09:34:07 10° W 18:47:39 83° N 19:33:48 10° E visible
13 Dec 5.8 03:39:49 14° E 03:39:49 14° E 03:40:41 10° E visible
13 Dec 9.9 15:03:06 10° W 16:34:45 31° W 20:18:41 10° W visible
14 Dec 7.2 00:14:19 10° W 00:23:58 21° W 00:23:58 21° W visible
14 Dec 5.9 11:40:06 10° W 13:30:04 82° WSW 21:31:45 54° ENE visible
16 Dec 4.4 05:36:51 22° WSW 05:40:06 67° S 06:03:04 10° E visible
